Terug naar catalogus

STARLINK-6099

ActiefCommunicatieVLEO
NORAD 57108·PAYLOAD·🇺🇸 United States

Gelanceerd Jun 23, 2023 vanaf Cape Canaveral Space Force Station

Loading…

Volgende Passages (komende 24 uur)

TLE

VersSource: CelesTrak SupGP

Epoch: Sep 14, 2026, 21:49 UTC

1 57108C 23090H   26257.90951389 -.00000896  00000+0 -32451-4 0  2571
2 57108  43.0003 292.9426 0001249 267.1332   2.6349 15.27575731    15

Volg STARLINK-6099 in realtime met AllMySat

Download on the App Store